Lid_Strength_Index
5 4 5 5 3 3 3 2 2 2 2 2 3 4 5 4 4 3 2 1 2 1 1 2 2 2 2 3 3 3 3 2 2 2 3 3 2 2 2 2 2 1 1
6 5 5 3 3 3 3 3 3 3 2 3 3 4 4 4 4 3 3 2 1 1 1 2 3 2 3 2 2 3 3 2 2 4 4 6 5 3 2 2 2 2 1
6 6 5 4 4 3 3 3 3 3 3 3 3 4 4 4 4 4 3 2 1 1 2 2 2 2 2 2 3 2 3 4 3 3 4 7 7 5 3 3 2 2 3
5 5 6 5 4 4 3 3 3 3 3 4 4 4 5 5 4 3 3 2 1 2 1 2 1 1 2 3 3 2 3 4 4 4 2 3 4 6 7 4 3 3 2
7 6 4 4 4 3 3 3 4 4 4 4 4 4 4 4 4 3 3 3 3 2 1 1 2 2 3 3 3 3 3 3 4 4 4 4 4 4 6 7 5 3 3
7 5 4 4 4 3 3 3 4 4 4 3 3 3 4 4 4 4 4 3 3 3 2 1 2 2 2 3 2 2 3 3 3 3 4 4 4 4 5 6 6 5 4
6 6 5 5 4 4 3 4 4 4 3 3 3 3 4 4 3 4 4 3 4 3 3 2 3 3 2 2 2 3 3 3 3 3 3 3 3 3 4 5 5 5 3
6 6 5 5 4 4 3 3 3 4 3 3 3 3 3 3 3 3 3 3 3 3 2 2 2 2 2 2 2 3 2 2 2 2 3 3 2 2 2 4 4 6 5
6 6 5 5 4 4 3 3 3 3 3 3 3 3 3 3 3 3 3 3 3 2 2 2 2 2 2 2 2 2 2 2 3 2 3 2 1 2 2 3 2 4 7
6 6 5 5 4 3 3 3 3 3 3 3 3 3 3 3 2 2 3 3 2 2 2 2 2 2 2 2 2 2 2 2 3 2 2 2 1 2 1 3 2 3 4
6 6 5 4 4 3 3 3 3 3 3 3 3 3 3 2 2 2 2 3 3 2 2 2 2 2 2 2 2 2 2 2 2 2 2 2 2 2 2 2 2 3 3
6 5 5 4 4 4 3 3 3 3 3 3 3 3 2 2 2 3 3 2 2 2 2 2 2 2 1 2 2 2 1 2 2 2 2 2 1 2 2 3 3 3 3
6 5 5 5 4 4 4 3 3 3 3 3 2 2 3 3 3 3 2 2 2 2 2 2 2 2 2 2 2 2 2 2 2 1 2 2 2 2 2 3 3 3 2
6 6 5 5 4 4 4 3 4 3 3 2 2 3 3 3 3 3 2 2 2 2 2 1 1 1 2 1 1 1 2 2 1 1 1 1 2 2 2 2 2 2 2
6 6 5 5 4 4 4 4 3 3 3 3 2 3 3 2 2 2 2 2 2 1 1 1 2 2 2 2 2 2 2 2 2 1 1 1 2 2 2 1 2 2 2
6 6 5 5 4 4 4 4 3 4 3 3 3 2 2 2 2 2 2 2 2 2 2 2 3 3 3 8 6 3 2 2 2 2 2 2 3 4 6 4 3 2 2
6 5 5 5 4 4 4 4 4 4 2 3 2 2 2 2 2 2 2 3 3 3 3 3 4 4 5 9 9 7 2 3 3 3 2 2 3 4 5 7 6 6 6
5 5 4 4 4 4 4 4 4 3 3 3 3 2 2 2 2 2 3 3 4 4 4 4 4 5 5 9 9 7 3 3 2 2 2 3 3 3 3 3 4 3 3
4 4 4 4 5 4 4 3 4 3 3 3 3 2 2 2 3 3 3 3 3 3 4 4 5 4 4 10 8 4 2 2 2 1 2 3 3 9 8 3 4 4 5
4 4 3 4 5 5 3 4 4 3 3 3 2 2 2 2 2 3 3 3 3 2 2 3 3 6 4 11 9 4 2 3 3 3 3 7 5 10 9 3 4 4 4
4 3 4 5 5 4 4 4 4 4 3 2 2 2 2 2 3 3 3 3 3 3 3 3 3 5 5 6 10 8 3 3 3 3 3 4 10 10 10 7 3 4 4
4 3 4 5 5 4 4 4 4 4 3 2 2 2 3 2 2 3 3 3 4 4 4 3 4 4 5 9 10 9 6 5 2 3 3 6 11 11 10 7 11 10 6
4 4 5 5 5 4 4 4 4 4 3 2 3 3 2 3 2 3 3 3 4 4 3 3 3 4 4 5 10 9 10 8 4 3 6 11 11 11 10 11 10 7 2
4 4 4 5 5 5 4 3 4 3 2 3 3 2 2 3 3 2 2 3 4 4 3 3 3 3 4 5 4 5 6 9 7 9 7 8 7 8 7 7 5 2 3
4 4 4 5 5 5 4 3 3 2 3 3 3 3 3 3 3 3 3 2 3 4 3 3 2 3 4 4 6 5 4 4 5 6 6 4 3 4 3 2 2 2 2
4 4 4 4 5 5 4 3 3 2 2 3 3 3 3 3 4 6 8 13 11 9 8 6 4 2 5 10 11 9 10 10 9 5 5 4 3 3 3 2 2 3 3